フルス彗星

C/2023 T3 ( Fuls )

English version
Home page
Updated on August 30, 2025

---------------------------------------------------------------------

・ プロフィール

発見日 2023年10月15日
発見光度 18.5等
発見者 David Carson Fuls (Mt. Lemmon Survey)

・ 写真集

・ 軌道要素

Epoch 2025 May 5.0 TT = JDT 2460800.5
T 2025 Jan. 25.35027 TT                                 Pike
q   3.5483137            (2000.0)            P               Q
z  +0.0011861      Peri.  302.84733     -0.90309276     +0.09894919
 +/-0.0000009      Node   246.00163     -0.02299254     -0.98283835
e   0.9957913      Incl.   27.22155     -0.42882959     -0.15568503
From 1317 observations 2023 Sept. 9-2025 Aug. 7, mean residual 0".4.

・ 星図

・ 光度変化

        m1 = 7.7 + 5 logΔ + 10.0 log r

---------------------------------------------------------------------

軌道要素はM.P.E.C. 2025-P113に掲載されたものです。
星図はステラナビゲータ Ver.11 (アストロアーツ) で作成したものです。
光度グラフはComet for Windowsで作成したものです。

---------------------------------------------------------------------

Copyright(C) Seiichi Yoshida (comet@aerith.net). All rights reserved.